Find BSAT-3A

NORAD ID: 32019 Int'l Des: 2007-036 Owner: BSAT Country: J operational
HEOCIRCULAR

Current View

Loading 3D Globe...

About BSAT-3A

Description loading...

Upcoming Passes

Passes for default location (London). Set your location on the main map for personalized predictions.

Altitude History

Loading altitude history...

Two-Line Element Set

1 32019U 07036B 26151.15817456 -.00000159 00000-0 00000+0 0 9998
2 32019 1.6162 88.6607 0002947 87.2402 67.7241 0.99141087 50307
Epoch: May 31, 2026 • Age: 9 hours

Current Status

Altitude 36118.3 km
Velocity 3.06 km/s
Sub-Earth Point -1.56°S, 63.45°W
Launch Date Aug 14, 2007
Age 18.7 years
Type other

Technical Details

Classification Payload
Mass 1967.00 kg
Dry Mass 930.00 kg
Total Mass 1967.00 kg
Length 3.80 m
Diameter 1.90 m
Span 14.70 m
Shape Box + 2 Pan
Manufacturer LMCSS
Bus Type A2100A
Phase Status In Orbit
Owner/State BSAT/J

Most Searched